TimeCST,TemperatureF,Dew PointF,Humidity,Sea Level PressureIn,VisibilityMPH,Wind Direction,Wind SpeedMPH,Gust SpeedMPH,PrecipitationIn,Events,Conditions,WindDirDegrees,DateUTC
12:17 AM,73.4,68.0,83,30.01,10.0,SSE,17.3,21.9,N/A,,Overcast,150,2013-01-28 06:17:00
12:46 AM,71.6,68.0,88,30.01,10.0,SSE,15.0,21.9,N/A,,Overcast,150,2013-01-28 06:46:00
12:53 AM,72.0,68.0,87,30.00,10.0,SSE,16.1,-,N/A,,Mostly Cloudy,150,2013-01-28 06:53:00
1:06 AM,71.6,68.0,88,30.01,10.0,SSE,16.1,23.0,N/A,,Mostly Cloudy,150,2013-01-28 07:06:00
1:13 AM,71.6,68.0,88,30.01,10.0,SSE,12.7,23.0,N/A,,Mostly Cloudy,150,2013-01-28 07:13:00
1:25 AM,71.6,68.0,88,30.01,10.0,SSE,16.1,21.9,N/A,,Overcast,150,2013-01-28 07:25:00
1:53 AM,72.0,68.0,87,30.00,10.0,SSE,13.8,-,N/A,,Overcast,150,2013-01-28 07:53:00
2:51 AM,71.6,68.0,88,30.00,10.0,SSE,12.7,-,N/A,,Overcast,150,2013-01-28 08:51:00
2:53 AM,72.0,68.0,87,29.99,10.0,SSE,13.8,19.6,N/A,,Overcast,150,2013-01-28 08:53:00
3:15 AM,73.4,68.0,83,29.99,10.0,SE,13.8,-,N/A,,Overcast,140,2013-01-28 09:15:00
3:53 AM,73.0,69.1,87,29.98,8.0,SE,15.0,-,N/A,,Overcast,140,2013-01-28 09:53:00
4:53 AM,73.0,68.0,84,29.97,10.0,SSE,16.1,25.3,N/A,,Overcast,150,2013-01-28 10:53:00
5:45 AM,73.4,66.2,78,29.98,10.0,SSE,19.6,28.8,N/A,,Overcast,150,2013-01-28 11:45:00
5:53 AM,73.0,66.9,81,29.98,10.0,SE,19.6,28.8,N/A,,Overcast,140,2013-01-28 11:53:00
6:53 AM,73.0,66.9,81,29.99,10.0,SSE,16.1,25.3,N/A,,Overcast,150,2013-01-28 12:53:00
7:53 AM,72.0,66.9,84,30.00,9.0,SSE,17.3,21.9,N/A,,Overcast,150,2013-01-28 13:53:00
8:35 AM,73.4,66.2,78,30.01,10.0,SSE,13.8,25.3,N/A,,Overcast,150,2013-01-28 14:35:00
8:53 AM,73.9,66.9,79,30.00,10.0,SSE,18.4,26.5,N/A,,Mostly Cloudy,150,2013-01-28 14:53:00
9:53 AM,75.9,66.9,74,30.01,10.0,SSE,20.7,27.6,N/A,,Overcast,150,2013-01-28 15:53:00
10:53 AM,79.0,66.0,64,30.01,10.0,SSE,18.4,28.8,N/A,,Overcast,160,2013-01-28 16:53:00
11:12 AM,80.6,66.2,61,30.01,10.0,SSE,23.0,29.9,N/A,,Mostly Cloudy,160,2013-01-28 17:12:00
11:53 AM,80.1,66.0,62,30.00,10.0,SSE,21.9,29.9,N/A,,Overcast,160,2013-01-28 17:53:00
12:53 PM,84.0,66.0,55,29.96,10.0,SSE,16.1,25.3,N/A,,Overcast,160,2013-01-28 18:53:00
1:53 PM,84.9,66.0,53,29.91,10.0,SSE,24.2,33.4,N/A,,Scattered Clouds,150,2013-01-28 19:53:00
2:53 PM,84.9,66.9,55,29.89,10.0,SE,28.8,34.5,N/A,,Scattered Clouds,130,2013-01-28 20:53:00
3:53 PM,82.9,66.9,58,29.88,10.0,SE,24.2,34.5,N/A,,Partly Cloudy,140,2013-01-28 21:53:00
4:53 PM,81.0,66.9,62,29.87,10.0,SE,25.3,32.2,N/A,,Scattered Clouds,140,2013-01-28 22:53:00
5:53 PM,78.1,68.0,71,29.87,10.0,SSE,28.8,35.7,N/A,,Partly Cloudy,150,2013-01-28 23:53:00
6:53 PM,75.0,68.0,79,29.88,10.0,SSE,21.9,35.7,N/A,,Scattered Clouds,150,2013-01-29 00:53:00
7:05 PM,75.2,68.0,78,29.89,10.0,SSE,21.9,29.9,N/A,,Mostly Cloudy,150,2013-01-29 01:05:00
7:53 PM,75.0,68.0,79,29.90,10.0,SSE,23.0,29.9,N/A,,Overcast,150,2013-01-29 01:53:00
8:01 PM,75.2,68.0,78,29.90,10.0,SSE,19.6,29.9,N/A,,Overcast,150,2013-01-29 02:01:00
8:53 PM,75.0,68.0,79,29.90,10.0,SE,23.0,28.8,N/A,,Overcast,140,2013-01-29 02:53:00
9:53 PM,75.0,68.0,79,29.91,10.0,SSE,15.0,24.2,N/A,,Overcast,160,2013-01-29 03:53:00
10:19 PM,75.2,68.0,78,29.92,10.0,SSE,17.3,27.6,N/A,,Overcast,150,2013-01-29 04:19:00
10:53 PM,75.0,68.0,79,29.91,10.0,SSE,16.1,23.0,N/A,,Overcast,150,2013-01-29 04:53:00
11:53 PM,75.0,68.0,79,29.90,10.0,SSE,20.7,27.6,N/A,,Overcast,150,2013-01-29 05:53:00